MMSATS-1 (47976 NORAD) Tracking and Keplerian Element Data

This shows tracking and keplerian element data for the satellite.

Feedback or suggestion? Click here.




ElementValue
Catalog47976
NameMMSATS-1
Epoch Orbit1437
Epoch Day173.79270374
Epoch Year2021
RAAN314.5913
Inclination51.6488
Eccentricity0.0003028
Argument of Perigee113.0905
Mean Anonmoly247.0403
Mean Motion15.49890926
Decay Rate2.754E-05
L11 47976U 98067SJ 21173.79270374 .00002754 00000-0 56419-4 0 9993
L22 47976 51.6488 314.5913 0003028 113.0905 247.0403 15.49890926 14373

Live tracking and technical data element details for MMSATS-1 (NORAD 47976). MMSATS-1 can be tracked NOW for your location showing map with azimuth and elevation plus other details from your city location.

Track the satellite on the map from your city or location and see movement details for azimuth, elevation, latitude, longitude, range, height, and movement on the map or in text.







IsCatalogInMostPopularTable: catalog: 47976, numindb: 46
Update: records affected: 1



GetName: 47976 MMSATS-1

Hit Count: updated at: Thu, 24 Jun 2021 03:18:51 GMT